Theta_e
331 332 331 331 331 330 329 329 328 328 326 324 324 324 324 325 325 324 324 325 325 325 326 326 326 326 327 328 328 329 330 330 330 330 330 330 329 329 329 328 328 329
332 331 330 330 329 328 328 328 328 327 325 324 325 324 325 325 325 324 324 324 325 326 326 325 325 324 325 327 327 328 328 328 329 329 329 329 329 329 329 328 328 328
332 331 329 328 327 327 328 328 327 326 324 324 325 325 325 325 325 325 324 324 325 325 325 325 324 323 324 325 326 326 327 327 328 328 328 328 328 327 327 327 328 328
333 331 329 327 327 327 327 327 326 325 325 324 324 324 325 325 325 325 324 324 324 323 323 324 324 323 323 325 326 326 327 327 327 327 327 327 326 325 326 327 328 328
332 331 329 328 328 327 327 326 325 325 325 324 324 324 324 325 324 324 323 323 322 322 322 323 324 323 322 324 326 326 326 327 326 326 326 325 325 324 325 326 327 328
331 330 329 328 328 328 327 326 325 325 325 324 324 324 324 324 323 323 323 323 322 322 321 322 324 324 322 323 324 322 320 321 322 323 324 323 324 324 324 325 327 328
329 329 329 328 328 328 327 326 325 325 325 324 324 324 323 323 323 322 322 322 322 322 321 320 323 324 322 323 323 321 320 318 317 317 319 320 320 322 323 324 326 327
327 327 327 327 327 327 326 324 324 325 325 325 324 324 323 323 323 322 321 321 320 320 320 321 323 324 323 323 323 322 322 321 317 315 316 318 318 320 321 323 325 326
326 325 324 325 325 325 324 324 325 325 325 325 324 324 323 322 321 320 320 319 319 319 320 322 323 324 324 323 323 320 319 321 319 315 315 317 317 317 317 320 323 325
324 323 323 324 323 323 324 325 325 325 324 324 324 323 322 320 319 319 319 318 318 318 318 319 320 321 321 321 320 319 317 319 320 316 315 316 316 315 315 316 319 323
323 323 323 323 323 324 325 325 324 324 324 324 323 321 318 317 318 319 319 319 318 317 317 316 316 316 316 316 317 318 317 317 318 317 315 315 315 314 315 315 317 321
322 322 322 323 323 323 323 323 324 323 323 321 319 318 317 317 318 317 318 318 317 317 316 316 315 314 313 314 315 317 316 316 317 317 316 315 315 314 314 314 316 319
321 321 322 322 322 322 322 322 322 321 319 318 317 318 318 318 318 316 315 316 315 315 315 315 315 314 313 313 314 315 316 315 315 316 316 316 315 315 314 314 314 316
321 321 320 320 320 320 320 320 319 318 317 316 316 317 317 316 316 315 314 314 314 314 314 314 314 314 313 313 313 314 314 314 313 314 316 316 316 315 315 314 314 314
320 320 320 319 320 319 319 318 317 316 315 314 314 315 316 315 315 315 315 314 314 313 313 313 313 314 313 313 314 313 312 313 313 313 315 316 316 316 316 315 314 314
319 319 319 319 319 319 319 318 317 316 316 315 314 314 314 313 314 316 316 315 315 315 314 313 313 313 313 313 314 314 313 313 314 313 314 315 316 316 316 315 314 314
318 318 318 318 318 317 317 317 317 317 317 317 315 314 314 315 315 317 317 316 315 315 314 314 313 313 313 313 314 314 314 314 314 314 314 315 316 316 316 316 316 315
317 317 317 317 317 317 317 317 317 318 319 318 318 317 317 318 318 318 318 317 316 316 315 315 315 314 313 313 313 313 314 314 314 314 314 314 315 315 315 316 316 316
317 316 316 316 316 317 317 317 318 318 317 317 316 317 318 318 318 319 319 319 319 318 317 317 317 317 316 315 314 313 313 313 314 314 314 314 314 314 315 315 315 315
315 314 313 313 313 314 314 314 313 312 312 312 311 312 314 315 315 316 317 318 319 318 317 317 317 317 318 318 317 316 315 314 313 313 314 314 314 314 314 315 315 314
310 310 308 308 308 309 308 308 307 306 306 307 307 308 309 309 310 310 311 312 313 314 314 313 313 314 316 318 319 319 318 317 316 315 314 313 314 314 314 314 314 314
305 306 306 305 306 306 304 303 303 303 303 304 304 304 304 304 305 305 306 306 307 308 309 309 308 309 312 314 316 318 319 320 319 319 317 316 315 314 314 314 314 313
301 302 302 302 303 302 301 300 300 301 302 303 304 303 303 303 302 301 302 303 303 304 304 304 305 306 307 309 311 313 315 317 318 319 320 320 319 319 318 317 316 315
298 299 299 299 299 299 298 298 298 299 299 301 302 302 304 305 303 300 300 301 301 301 301 301 302 302 303 304 306 307 309 311 312 313 315 317 318 319 320 320 320 319
297 297 297 297 297 297 297 297 297 297 297 298 298 298 300 302 302 299 298 299 299 299 299 300 300 300 301 301 302 303 304 305 306 307 308 310 311 313 315 317 318 320
297 297 297 297 297 297 297 297 297 297 297 297 297 297 297 297 298 297 298 298 298 298 298 298 298 298 299 299 300 301 301 302 302 303 303 304 305 306 308 309 311 313
Wind_Speed
24 21 19 20 20 20 23 22 19 18 18 16 15 14 12 11 9 7 5 4 4 7 9 7 5 3 3 3 3 3 4 5 5 6 6 6 6 5 6 6 5 7
23 20 19 20 20 21 22 20 18 18 16 15 14 13 13 11 9 8 6 4 4 7 9 6 5 4 3 2 2 3 3 4 5 5 6 6 5 5 5 5 5 6
21 19 19 19 20 21 21 19 18 17 15 14 13 12 12 12 10 9 8 5 5 6 6 5 4 4 3 3 2 2 2 3 3 4 4 4 4 4 5 5 5 6
19 18 20 19 20 20 20 19 18 17 15 14 13 12 12 11 10 9 8 7 6 6 5 4 4 4 4 3 3 2 2 2 2 3 3 3 3 3 4 4 5 6
18 18 19 20 20 19 19 19 18 17 16 14 13 12 11 11 10 9 8 7 7 6 4 4 4 4 4 5 5 4 3 3 2 3 3 3 3 3 3 4 6 7
16 18 19 20 19 19 19 18 17 16 14 13 12 12 11 11 10 9 8 7 6 5 4 3 5 4 4 5 5 5 4 3 2 2 3 3 3 3 3 4 7 8
16 17 18 19 18 18 17 16 16 15 13 12 12 12 11 11 9 8 7 6 5 5 4 4 5 5 3 4 4 4 3 2 2 2 3 2 3 4 4 4 7 9
16 17 17 18 17 18 17 15 15 13 12 11 12 11 11 10 8 7 6 5 5 5 5 5 6 6 4 2 2 2 2 2 2 2 1 1 2 3 4 6 7 9
16 16 17 17 17 18 17 15 14 13 11 11 11 10 10 8 7 6 6 6 7 7 6 6 6 6 4 2 1 2 3 2 2 1 1 1 1 1 3 6 8 9
16 16 17 17 17 17 17 15 14 12 12 11 11 9 8 8 7 7 7 7 7 7 6 5 5 4 3 2 1 1 2 2 1 1 1 1 1 0 1 3 7 10
17 18 18 18 17 16 15 14 13 12 13 12 10 9 8 9 9 8 7 6 5 6 5 5 4 3 2 2 2 2 1 0 2 3 3 2 2 1 3 2 4 8
17 17 18 18 17 15 14 14 14 14 13 12 10 10 10 9 8 7 5 5 4 5 5 4 3 2 2 2 3 3 2 2 2 3 4 4 2 1 3 3 1 4
16 17 18 18 17 16 16 17 17 16 14 13 12 11 10 8 7 6 5 4 4 3 3 3 3 2 2 3 3 3 3 2 3 3 3 4 3 3 4 4 2 1
17 19 20 21 20 20 20 20 18 16 14 13 11 9 8 6 5 5 4 4 3 3 3 3 3 2 2 2 2 3 3 3 4 5 4 3 4 4 5 5 4 2
20 22 22 22 22 22 22 22 20 18 14 11 8 7 6 4 3 2 0 2 2 2 3 3 3 3 2 1 1 2 3 3 4 6 6 5 5 5 5 5 4 4
21 21 21 21 21 21 20 19 18 13 9 6 6 6 5 6 4 2 4 4 4 3 3 3 3 4 4 3 2 2 3 3 3 6 8 8 7 6 5 6 5 5
17 17 17 17 17 17 15 14 12 10 7 6 8 9 8 7 5 2 3 3 2 2 2 2 3 5 5 5 4 3 4 4 3 4 7 8 8 7 6 6 7 6
16 16 16 15 15 15 14 13 12 12 11 10 10 11 10 9 7 5 4 4 5 6 5 4 1 2 5 6 7 6 5 5 5 4 5 7 7 7 6 6 7 7
19 19 19 19 18 18 17 17 17 16 15 14 13 13 12 12 11 10 9 9 10 10 9 7 5 3 1 2 5 6 7 7 7 6 6 6 7 7 7 7 7 8
23 23 23 23 22 21 20 20 19 19 18 17 16 15 15 14 14 13 12 12 11 11 10 9 8 6 4 2 0 2 4 6 8 9 9 9 9 9 9 10 10 11
25 25 25 24 24 23 22 22 21 20 20 18 18 17 17 16 16 15 15 14 13 11 10 10 10 8 5 3 2 1 1 3 5 8 10 11 12 13 13 13 13 13
26 25 24 23 23 22 22 22 21 20 19 18 18 18 18 17 16 15 15 14 13 12 11 10 10 8 6 5 3 2 2 2 2 4 6 8 10 12 13 14 15 15
25 24 23 22 22 21 21 20 19 18 17 15 15 15 16 15 14 14 14 13 12 11 11 10 9 8 7 6 4 4 3 4 4 4 5 6 7 9 10 12 13 13
23 23 22 22 21 20 19 18 17 17 15 13 12 12 11 10 8 9 11 10 10 11 10 9 9 8 7 6 6 6 5 5 5 6 6 7 8 9 8 9 11 11
22 21 21 20 20 19 18 17 16 16 14 13 13 13 11 8 5 6 8 8 8 8 7 7 7 7 7 7 7 7 6 7 7 7 7 8 9 10 10 10 12 12
20 20 19 19 17 16 16 15 14 13 12 12 12 12 11 10 8 7 7 7 7 7 6 6 6 6 7 7 7 7 7 7 7 7 8 9 10 11 12 13 13 13
Wind_Direction
188 186 176 173 171 171 171 170 171 170 168 167 165 162 158 154 151 148 154 159 158 173 181 178 174 181 186 203 220 221 225 231 230 226 223 224 222 221 232 233 216 203
186 182 174 170 170 171 171 172 173 171 169 168 167 166 166 163 157 151 150 147 138 154 167 166 148 139 143 159 185 204 216 226 230 228 231 240 238 229 234 234 218 205
180 177 175 170 168 169 169 170 171 168 165 166 167 169 170 169 167 163 160 159 154 151 154 156 144 123 115 124 139 168 188 200 212 215 214 220 222 219 224 220 204 195
177 178 178 173 169 168 168 169 169 166 163 163 164 165 167 169 171 171 171 169 161 151 144 158 159 122 99 100 110 132 161 176 179 172 166 175 181 191 207 198 183 183
177 180 180 176 173 170 169 169 169 166 163 162 162 161 164 168 168 168 173 172 160 148 142 159 168 135 90 87 102 113 128 142 148 147 151 167 165 165 186 179 169 174
178 181 181 180 177 174 173 172 171 167 164 166 164 162 166 169 169 168 169 172 165 157 155 168 173 151 97 84 100 102 100 110 127 154 170 192 188 179 184 178 170 173
175 179 181 180 177 176 176 174 173 171 171 173 168 165 168 170 172 172 168 171 171 172 177 179 175 163 121 87 98 93 78 73 79 132 167 192 203 193 186 183 181 181
170 175 177 176 175 176 176 174 174 176 178 179 173 168 168 169 170 168 166 165 162 164 165 156 162 166 147 103 86 66 41 24 23 50 114 160 190 187 178 180 186 189
168 171 171 171 172 172 172 173 176 179 182 181 174 167 163 160 157 149 144 143 140 138 133 131 142 157 159 150 96 41 21 360 346 9 49 144 174 172 158 169 181 189
170 170 170 169 169 169 171 174 176 176 176 174 169 162 154 143 135 133 131 129 131 131 128 126 133 144 155 161 154 43 10 353 266 255 252 181 183 325 38 145 171 182
170 168 166 165 165 167 169 170 167 163 162 163 158 149 139 129 127 133 133 129 132 136 136 133 130 133 148 163 181 196 246 280 223 228 226 199 174 338 1 49 150 174
159 160 160 160 161 162 159 155 151 150 150 149 145 138 130 124 123 126 129 136 140 142 145 146 139 136 147 164 179 189 196 216 232 231 216 203 198 264 316 347 85 164
148 151 152 151 151 148 144 142 141 142 141 138 140 140 136 137 137 130 124 132 145 152 159 168 168 150 132 141 157 178 199 222 238 241 223 206 213 238 260 279 295 165
135 137 134 134 134 134 134 133 130 127 125 127 132 132 131 139 143 140 140 146 156 166 174 184 188 177 138 128 151 186 202 220 231 231 228 214 212 226 237 244 243 213
128 130 128 129 131 132 129 127 124 119 115 118 119 113 115 125 117 83 206 200 206 210 199 199 202 204 201 184 166 179 194 213 220 218 221 217 210 215 221 217 211 199
124 127 127 128 132 134 131 129 133 137 136 135 133 135 148 155 143 347 315 280 263 250 229 229 229 226 223 221 217 200 208 237 235 212 212 215 216 218 218 210 202 196
119 124 127 127 130 134 134 134 142 157 166 157 152 160 171 172 173 241 289 265 236 194 175 208 236 239 239 240 243 237 234 250 258 224 209 212 221 226 226 221 217 218
118 121 124 125 128 131 134 137 142 147 148 144 143 147 150 148 147 150 141 128 121 113 104 99 106 241 246 248 252 252 248 251 260 251 223 218 227 234 238 237 234 238
116 116 115 115 117 120 123 128 131 130 127 124 121 122 123 120 119 121 118 113 110 105 97 92 85 76 68 252 251 251 251 249 251 254 246 239 241 246 253 256 256 258
111 111 110 109 111 114 115 115 115 112 110 109 106 104 105 102 100 103 104 102 101 98 94 89 81 72 69 67 53 252 252 249 249 250 249 250 251 254 258 261 263 265
107 107 107 107 108 110 109 105 105 103 102 102 101 98 96 93 92 92 92 93 92 91 89 82 72 65 60 58 53 27 290 264 256 252 251 252 255 257 260 262 263 263
101 104 104 104 105 106 102 98 97 98 98 99 99 96 93 90 88 87 88 89 89 88 85 77 68 58 51 44 31 12 347 319 293 274 265 260 260 261 262 264 266 267
96 99 100 99 99 98 94 90 90 91 92 94 96 96 91 83 77 77 81 82 82 82 77 70 62 51 42 33 18 5 349 332 323 312 302 291 283 275 268 266 267 267
92 93 94 94 92 91 88 86 85 84 85 88 89 90 87 78 64 63 70 71 70 69 65 59 52 40 31 24 15 6 356 347 339 328 319 312 304 296 284 277 275 271
87 86 86 85 84 85 84 82 80 78 79 82 82 82 84 89 88 72 67 63 59 58 55 50 43 27 15 10 5 358 353 351 345 336 328 318 309 304 298 292 288 283
82 81 80 77 76 77 76 76 75 74 73 74 75 77 80 85 88 80 70 65 57 50 44 40 35 18 4 356 350 346 345 344 341 334 325 316 308 305 302 301 298 293